owner,sensor,date,latitude,longitude,vertical_datum,sea_water_practical_salinity,qcFlag 
DISL,ioos:station:DISL:DISL:1,2012-11-01T00:00:00Z,30.2513,-88.0778,6.593,30.16,1111122 
DISL,ioos:station:DISL:DISL:1,2012-11-01T00:30:00Z,30.2513,-88.0778,6.672,30.74,1111122 
DISL,ioos:station:DISL:DISL:1,2012-11-01T01:00:00Z,30.2513,-88.0778,6.762,30.92,1111122 
DISL,ioos:station:DISL:DISL:1,2012-11-01T01:30:00Z,30.2513,-88.0778,6.781,31.06,1111122 
DISL,ioos:station:DISL:DISL:1,2012-11-01T02:00:00Z,30.2513,-88.0778,6.921,29.59,1111122 
DISL,ioos:station:DISL:DISL:1,2012-11-01T02:30:00Z,30.2513,-88.0778,6.925,30.26,1111122 
DISL,ioos:station:DISL:DISL:1,2012-11-01T03:00:00Z,30.2513,-88.0778,6.985,28.44,1111122 
DISL,ioos:station:DISL:DISL:1,2012-11-01T03:30:00Z,30.2513,-88.0778,7.02,29.15,1111122 
DISL,ioos:station:DISL:DISL:1,2012-11-01T04:00:00Z,30.2513,-88.0778,7.09,28.76,1111122 
DISL,ioos:station:DISL:DISL:1,2012-11-01T04:30:00Z,30.2513,-88.0778,7.12,29.05,1111122 
DISL,ioos:station:DISL:DISL:1,2012-11-01T05:00:00Z,30.2513,-88.0778,7.13,26.87,1111122 
DISL,ioos:station:DISL:DISL:1,2012-11-01T05:30:00Z,30.2513,-88.0778,7.04,24.08,1111122 
DISL,ioos:station:DISL:DISL:1,2012-11-01T06:00:00Z,30.2513,-88.0778,7.01,24.08,1111122 
DISL,ioos:station:DISL:DISL:1,2012-11-01T06:30:00Z,30.2513,-88.0778,6.966,24.09,1111122 
DISL,ioos:station:DISL:DISL:1,2012-11-01T07:00:00Z,30.2513,-88.0778,6.977,24.18,1111122 
DISL,ioos:station:DISL:DISL:1,2012-11-01T07:30:00Z,30.2513,-88.0778,6.846,24.12,1111122 
DISL,ioos:station:DISL:DISL:1,2012-11-01T08:00:00Z,30.2513,-88.0778,6.774,24.23,1111122 
DISL,ioos:station:DISL:DISL:1,2012-11-01T08:30:00Z,30.2513,-88.0778,6.673,24.21,1111122 
DISL,ioos:station:DISL:DISL:1,2012-11-01T09:00:00Z,30.2513,-88.0778,6.578,24.32,1111122 
DISL,ioos:station:DISL:DISL:1,2012-11-01T09:30:00Z,30.2513,-88.0778,6.465,24.55,1111122 
DISL,ioos:station:DISL:DISL:1,2012-11-01T10:00:00Z,30.2513,-88.0778,6.416,24.76,1111122 
DISL,ioos:station:DISL:DISL:1,2012-11-01T10:30:00Z,30.2513,-88.0778,6.279,25.27,1111122 
DISL,ioos:station:DISL:DISL:1,2012-11-01T11:00:00Z,30.2513,-88.0778,6.14,25.43,1111122 
DISL,ioos:station:DISL:DISL:1,2012-11-01T11:30:00Z,30.2513,-88.0778,6.082,25.51,1111122 
DISL,ioos:station:DISL:DISL:1,2012-11-01T12:00:00Z,30.2513,-88.0778,6.053,25.7,1111122 
DISL,ioos:station:DISL:DISL:1,2012-11-01T12:30:00Z,30.2513,-88.0778,5.927,25.95,1111122 
DISL,ioos:station:DISL:DISL:1,2012-11-01T13:00:00Z,30.2513,-88.0778,5.896,26.13,1111122 
DISL,ioos:station:DISL:DISL:1,2012-11-01T13:30:00Z,30.2513,-88.0778,5.838,26.74,1111122 
DISL,ioos:station:DISL:DISL:1,2012-11-01T14:00:00Z,30.2513,-88.0778,5.842,27.65,1111122 
DISL,ioos:station:DISL:DISL:1,2012-11-01T14:30:00Z,30.2513,-88.0778,5.806,27.63,1111122 
DISL,ioos:station:DISL:DISL:1,2012-11-01T15:00:00Z,30.2513,-88.0778,5.755,27.23,1111122 
DISL,ioos:station:DISL:DISL:1,2012-11-01T15:30:00Z,30.2513,-88.0778,5.604,26.27,1111122 
DISL,ioos:station:DISL:DISL:1,2012-11-01T16:00:00Z,30.2513,-88.0778,5.637,25.01,1111122 
DISL,ioos:station:DISL:DISL:1,2012-11-01T16:30:00Z,30.2513,-88.0778,5.719,24.73,1111122 
DISL,ioos:station:DISL:DISL:1,2012-11-01T17:00:00Z,30.2513,-88.0778,5.722,25.83,1111122 
DISL,ioos:station:DISL:DISL:1,2012-11-01T17:30:00Z,30.2513,-88.0778,5.757,25.97,1111122 
DISL,ioos:station:DISL:DISL:1,2012-11-01T18:00:00Z,30.2513,-88.0778,5.768,27.31,1111122 
DISL,ioos:station:DISL:DISL:1,2012-11-01T18:30:00Z,30.2513,-88.0778,5.832,27.98,1111122 
DISL,ioos:station:DISL:DISL:1,2012-11-01T19:00:00Z,30.2513,-88.0778,5.888,27.4,1111122 
DISL,ioos:station:DISL:DISL:1,2012-11-01T19:30:00Z,30.2513,-88.0778,5.972,27.02,1111122 
DISL,ioos:station:DISL:DISL:1,2012-11-01T20:00:00Z,30.2513,-88.0778,6.026,25.82,1111122 
DISL,ioos:station:DISL:DISL:1,2012-11-01T20:30:00Z,30.2513,-88.0778,6.108,25.94,1111122 
DISL,ioos:station:DISL:DISL:1,2012-11-01T21:00:00Z,30.2513,-88.0778,6.232,25.81,1111122 
DISL,ioos:station:DISL:DISL:1,2012-11-01T21:30:00Z,30.2513,-88.0778,6.299,25.87,1111122 
DISL,ioos:station:DISL:DISL:1,2012-11-01T22:00:00Z,30.2513,-88.0778,6.405,25.67,1111122 
DISL,ioos:station:DISL:DISL:1,2012-11-01T22:30:00Z,30.2513,-88.0778,6.478,25.59,1111122 
DISL,ioos:station:DISL:DISL:1,2012-11-01T23:00:00Z,30.2513,-88.0778,6.603,25.12,1111122 
DISL,ioos:station:DISL:DISL:1,2012-11-01T23:30:00Z,30.2513,-88.0778,6.733,25.01,1111122 
DISL,ioos:station:DISL:DISL:1,2012-11-02T00:00:00Z,30.2513,-88.0778,6.803,27.05,1111122 
DISL,ioos:station:DISL:DISL:1,2012-11-02T00:30:00Z,30.2513,-88.0778,6.927,27.31,1111122 
DISL,ioos:station:DISL:DISL:1,2012-11-02T01:00:00Z,30.2513,-88.0778,7.03,27.63,1111122 
DISL,ioos:station:DISL:DISL:1,2012-11-02T01:30:00Z,30.2513,-88.0778,7.14,29.06,1111122 
DISL,ioos:station:DISL:DISL:1,2012-11-02T02:00:00Z,30.2513,-88.0778,7.22,27.72,1111122 
DISL,ioos:station:DISL:DISL:1,2012-11-02T02:30:00Z,30.2513,-88.0778,7.28,29.13,1111122 
DISL,ioos:station:DISL:DISL:1,2012-11-02T03:00:00Z,30.2513,-88.0778,7.34,29.54,1111122 
DISL,ioos:station:DISL:DISL:1,2012-11-02T03:30:00Z,30.2513,-88.0778,7.41,29.14,1111122 
DISL,ioos:station:DISL:DISL:1,2012-11-02T04:00:00Z,30.2513,-88.0778,7.44,29.59,1111122 
DISL,ioos:station:DISL:DISL:1,2012-11-02T04:30:00Z,30.2513,-88.0778,7.47,29.09,1111122 
DISL,ioos:station:DISL:DISL:1,2012-11-02T05:00:00Z,30.2513,-88.0778,7.45,28.99,1111122 
DISL,ioos:station:DISL:DISL:1,2012-11-02T05:30:00Z,30.2513,-88.0778,7.28,26.35,1111122 
DISL,ioos:station:DISL:DISL:1,2012-11-02T06:00:00Z,30.2513,-88.0778,7.48,25.47,1111122 
DISL,ioos:station:DISL:DISL:1,2012-11-02T06:30:00Z,30.2513,-88.0778,7.41,25.13,1111122 
DISL,ioos:station:DISL:DISL:1,2012-11-02T07:00:00Z,30.2513,-88.0778,7.35,24.92,1111122 
DISL,ioos:station:DISL:DISL:1,2012-11-02T07:30:00Z,30.2513,-88.0778,7.27,24.98,1111122 
DISL,ioos:station:DISL:DISL:1,2012-11-02T08:00:00Z,30.2513,-88.0778,7.21,24.88,1111122 
DISL,ioos:station:DISL:DISL:1,2012-11-02T08:30:00Z,30.2513,-88.0778,7.12,24.81,1111122 
DISL,ioos:station:DISL:DISL:1,2012-11-02T09:00:00Z,30.2513,-88.0778,6.984,25.2,1111122 
DISL,ioos:station:DISL:DISL:1,2012-11-02T09:30:00Z,30.2513,-88.0778,6.89,25.0,1111122 
DISL,ioos:station:DISL:DISL:1,2012-11-02T10:00:00Z,30.2513,-88.0778,6.801,25.57,1111122 
DISL,ioos:station:DISL:DISL:1,2012-11-02T10:30:00Z,30.2513,-88.0778,6.667,26.07,1111122 
DISL,ioos:station:DISL:DISL:1,2012-11-02T11:00:00Z,30.2513,-88.0778,6.568,26.26,1111122 
DISL,ioos:station:DISL:DISL:1,2012-11-02T11:30:00Z,30.2513,-88.0778,6.51,26.71,1111122 
DISL,ioos:station:DISL:DISL:1,2012-11-02T12:00:00Z,30.2513,-88.0778,6.456,26.87,1111122 
DISL,ioos:station:DISL:DISL:1,2012-11-02T12:30:00Z,30.2513,-88.0778,6.382,27.34,1111122 
DISL,ioos:station:DISL:DISL:1,2012-11-02T13:00:00Z,30.2513,-88.0778,6.325,27.46,1111122 
DISL,ioos:station:DISL:DISL:1,2012-11-02T13:30:00Z,30.2513,-88.0778,6.254,27.55,1111122 
DISL,ioos:station:DISL:DISL:1,2012-11-02T14:00:00Z,30.2513,-88.0778,6.191,27.44,1111122 
DISL,ioos:station:DISL:DISL:1,2012-11-02T14:30:00Z,30.2513,-88.0778,6.059,24.91,1111122 
DISL,ioos:station:DISL:DISL:1,2012-11-02T15:00:00Z,30.2513,-88.0778,6.084,25.08,1111122 
DISL,ioos:station:DISL:DISL:1,2012-11-02T15:30:00Z,30.2513,-88.0778,6.043,24.69,1111122 
DISL,ioos:station:DISL:DISL:1,2012-11-02T16:00:00Z,30.2513,-88.0778,6.001,24.87,1111122 
DISL,ioos:station:DISL:DISL:1,2012-11-02T16:30:00Z,30.2513,-88.0778,5.993,24.84,1111122 
DISL,ioos:station:DISL:DISL:1,2012-11-02T17:00:00Z,30.2513,-88.0778,6.023,26.14,1111122 
DISL,ioos:station:DISL:DISL:1,2012-11-02T17:30:00Z,30.2513,-88.0778,6.058,25.86,1111122 
DISL,ioos:station:DISL:DISL:1,2012-11-02T18:00:00Z,30.2513,-88.0778,6.013,26.14,1111122 
DISL,ioos:station:DISL:DISL:1,2012-11-02T18:30:00Z,30.2513,-88.0778,6.03,26.38,1111122 
DISL,ioos:station:DISL:DISL:1,2012-11-02T19:00:00Z,30.2513,-88.0778,6.033,26.4,1111122 
DISL,ioos:station:DISL:DISL:1,2012-11-02T19:30:00Z,30.2513,-88.0778,6.137,26.46,1111122 
DISL,ioos:station:DISL:DISL:1,2012-11-02T20:00:00Z,30.2513,-88.0778,6.219,26.55,1111122 
DISL,ioos:station:DISL:DISL:1,2012-11-02T20:30:00Z,30.2513,-88.0778,6.277,26.93,1111122 
DISL,ioos:station:DISL:DISL:1,2012-11-02T21:00:00Z,30.2513,-88.0778,6.452,26.43,1111122 
DISL,ioos:station:DISL:DISL:1,2012-11-02T21:30:00Z,30.2513,-88.0778,6.405,26.2,1111122 
DISL,ioos:station:DISL:DISL:1,2012-11-02T22:00:00Z,30.2513,-88.0778,6.497,26.03,1111122 
DISL,ioos:station:DISL:DISL:1,2012-11-02T22:30:00Z,30.2513,-88.0778,6.565,25.97,1111122 
DISL,ioos:station:DISL:DISL:1,2012-11-02T23:00:00Z,30.2513,-88.0778,6.659,25.54,1111122 
DISL,ioos:station:DISL:DISL:1,2012-11-02T23:30:00Z,30.2513,-88.0778,6.725,25.63,1111122 
DISL,ioos:station:DISL:DISL:1,2012-11-03T00:00:00Z,30.2513,-88.0778,6.881,25.7,1111122 
DISL,ioos:station:DISL:DISL:1,2012-11-03T00:30:00Z,30.2513,-88.0778,6.981,27.26,1111122 
DISL,ioos:station:DISL:DISL:1,2012-11-03T01:00:00Z,30.2513,-88.0778,7.07,26.94,1111122 
DISL,ioos:station:DISL:DISL:1,2012-11-03T01:30:00Z,30.2513,-88.0778,7.11,27.65,1111122 
DISL,ioos:station:DISL:DISL:1,2012-11-03T02:00:00Z,30.2513,-88.0778,7.2,27.38,1111122 
DISL,ioos:station:DISL:DISL:1,2012-11-03T02:30:00Z,30.2513,-88.0778,7.3,27.5,1111122 
DISL,ioos:station:DISL:DISL:1,2012-11-03T03:00:00Z,30.2513,-88.0778,7.34,27.35,1111122 
DISL,ioos:station:DISL:DISL:1,2012-11-03T03:30:00Z,30.2513,-88.0778,7.42,26.75,1111122 
DISL,ioos:station:DISL:DISL:1,2012-11-03T04:00:00Z,30.2513,-88.0778,7.45,25.92,1111122 
DISL,ioos:station:DISL:DISL:1,2012-11-03T04:30:00Z,30.2513,-88.0778,7.56,25.68,1111122 
DISL,ioos:station:DISL:DISL:1,2012-11-03T05:00:00Z,30.2513,-88.0778,7.48,25.78,1111122 
DISL,ioos:station:DISL:DISL:1,2012-11-03T05:30:00Z,30.2513,-88.0778,7.51,25.6,1111122 
DISL,ioos:station:DISL:DISL:1,2012-11-03T06:00:00Z,30.2513,-88.0778,7.48,25.69,1111122 
DISL,ioos:station:DISL:DISL:1,2012-11-03T06:30:00Z,30.2513,-88.0778,7.44,25.88,1111122 
DISL,ioos:station:DISL:DISL:1,2012-11-03T07:00:00Z,30.2513,-88.0778,7.36,25.89,1111122 
DISL,ioos:station:DISL:DISL:1,2012-11-03T07:30:00Z,30.2513,-88.0778,7.31,25.93,1111122 
DISL,ioos:station:DISL:DISL:1,2012-11-03T08:00:00Z,30.2513,-88.0778,7.24,25.94,1111122 
DISL,ioos:station:DISL:DISL:1,2012-11-03T08:30:00Z,30.2513,-88.0778,7.18,26.01,1111122 
DISL,ioos:station:DISL:DISL:1,2012-11-03T09:00:00Z,30.2513,-88.0778,7.08,25.77,1111122 
DISL,ioos:station:DISL:DISL:1,2012-11-03T09:30:00Z,30.2513,-88.0778,6.988,26.0,1111122 
DISL,ioos:station:DISL:DISL:1,2012-11-03T10:00:00Z,30.2513,-88.0778,6.892,25.94,1111122 
DISL,ioos:station:DISL:DISL:1,2012-11-03T10:30:00Z,30.2513,-88.0778,6.821,26.27,1111122 
DISL,ioos:station:DISL:DISL:1,2012-11-03T11:00:00Z,30.2513,-88.0778,6.494,26.09,1111122 
DISL,ioos:station:DISL:DISL:1,2012-11-03T11:30:00Z,30.2513,-88.0778,6.621,26.2,1111122 
DISL,ioos:station:DISL:DISL:1,2012-11-03T12:00:00Z,30.2513,-88.0778,6.548,26.53,1111122 
DISL,ioos:station:DISL:DISL:1,2012-11-03T12:30:00Z,30.2513,-88.0778,6.464,26.91,1111122 
DISL,ioos:station:DISL:DISL:1,2012-11-03T13:00:00Z,30.2513,-88.0778,6.377,27.08,1111122 
DISL,ioos:station:DISL:DISL:1,2012-11-03T13:30:00Z,30.2513,-88.0778,6.303,27.08,1111122 
DISL,ioos:station:DISL:DISL:1,2012-11-03T14:00:00Z,30.2513,-88.0778,6.25,27.1,1111122 
DISL,ioos:station:DISL:DISL:1,2012-11-03T14:30:00Z,30.2513,-88.0778,6.209,27.09,1111122 
DISL,ioos:station:DISL:DISL:1,2012-11-03T15:00:00Z,30.2513,-88.0778,6.188,25.64,1111122 
DISL,ioos:station:DISL:DISL:1,2012-11-03T15:30:00Z,30.2513,-88.0778,6.1,24.95,1111122 
DISL,ioos:station:DISL:DISL:1,2012-11-03T16:00:00Z,30.2513,-88.0778,6.08,24.09,1111122 
DISL,ioos:station:DISL:DISL:1,2012-11-03T16:30:00Z,30.2513,-88.0778,6.033,24.09,1111122 
DISL,ioos:station:DISL:DISL:1,2012-11-03T17:00:00Z,30.2513,-88.0778,6.021,23.92,1111122 
DISL,ioos:station:DISL:DISL:1,2012-11-03T17:30:00Z,30.2513,-88.0778,6.093,23.79,1111122 
DISL,ioos:station:DISL:DISL:1,2012-11-03T18:00:00Z,30.2513,-88.0778,6.025,23.82,1111122 
DISL,ioos:station:DISL:DISL:1,2012-11-03T18:30:00Z,30.2513,-88.0778,6.043,24.23,1111122 
DISL,ioos:station:DISL:DISL:1,2012-11-03T19:00:00Z,30.2513,-88.0778,6.096,24.64,1111122 
DISL,ioos:station:DISL:DISL:1,2012-11-03T19:30:00Z,30.2513,-88.0778,6.093,24.87,1111122 
DISL,ioos:station:DISL:DISL:1,2012-11-03T20:00:00Z,30.2513,-88.0778,6.138,25.03,1111122 
DISL,ioos:station:DISL:DISL:1,2012-11-03T20:30:00Z,30.2513,-88.0778,6.249,25.09,1111122 
DISL,ioos:station:DISL:DISL:1,2012-11-03T21:00:00Z,30.2513,-88.0778,6.196,25.21,1111122 
DISL,ioos:station:DISL:DISL:1,2012-11-03T21:30:00Z,30.2513,-88.0778,6.333,25.83,1111122 
DISL,ioos:station:DISL:DISL:1,2012-11-03T22:00:00Z,30.2513,-88.0778,6.345,25.94,1111122 
DISL,ioos:station:DISL:DISL:1,2012-11-03T22:30:00Z,30.2513,-88.0778,6.5,26.0,1111122 
DISL,ioos:station:DISL:DISL:1,2012-11-03T23:00:00Z,30.2513,-88.0778,6.592,26.01,1111122 
DISL,ioos:station:DISL:DISL:1,2012-11-03T23:30:00Z,30.2513,-88.0778,6.687,25.78,1111122 
DISL,ioos:station:DISL:DISL:1,2012-11-04T00:00:00Z,30.2513,-88.0778,6.772,25.9,1111122 
DISL,ioos:station:DISL:DISL:1,2012-11-04T00:30:00Z,30.2513,-88.0778,6.911,26.16,1111122 
DISL,ioos:station:DISL:DISL:1,2012-11-04T01:00:00Z,30.2513,-88.0778,6.972,26.18,1111122 
DISL,ioos:station:DISL:DISL:1,2012-11-04T01:30:00Z,30.2513,-88.0778,7.0,27.9,1111122 
DISL,ioos:station:DISL:DISL:1,2012-11-04T02:00:00Z,30.2513,-88.0778,7.11,28.35,1111122 
DISL,ioos:station:DISL:DISL:1,2012-11-04T02:30:00Z,30.2513,-88.0778,7.16,27.96,1111122 
DISL,ioos:station:DISL:DISL:1,2012-11-04T03:00:00Z,30.2513,-88.0778,7.22,28.3,1111122 
DISL,ioos:station:DISL:DISL:1,2012-11-04T03:30:00Z,30.2513,-88.0778,7.3,28.29,1111122 
DISL,ioos:station:DISL:DISL:1,2012-11-04T04:00:00Z,30.2513,-88.0778,7.32,27.79,1111122 
DISL,ioos:station:DISL:DISL:1,2012-11-04T04:30:00Z,30.2513,-88.0778,7.39,27.75,1111122 
DISL,ioos:station:DISL:DISL:1,2012-11-04T05:00:00Z,30.2513,-88.0778,7.4,27.31,1111122 
DISL,ioos:station:DISL:DISL:1,2012-11-04T05:30:00Z,30.2513,-88.0778,7.44,26.44,1111122 
DISL,ioos:station:DISL:DISL:1,2012-11-04T06:00:00Z,30.2513,-88.0778,7.44,26.34,1111122 
DISL,ioos:station:DISL:DISL:1,2012-11-04T06:30:00Z,30.2513,-88.0778,7.39,26.48,1111122 
DISL,ioos:station:DISL:DISL:1,2012-11-04T07:00:00Z,30.2513,-88.0778,7.34,26.37,1111122 
DISL,ioos:station:DISL:DISL:1,2012-11-04T07:30:00Z,30.2513,-88.0778,7.26,26.27,1111122 
DISL,ioos:station:DISL:DISL:1,2012-11-04T08:00:00Z,30.2513,-88.0778,7.22,26.22,1111122 
DISL,ioos:station:DISL:DISL:1,2012-11-04T08:30:00Z,30.2513,-88.0778,7.15,26.34,1111122 
DISL,ioos:station:DISL:DISL:1,2012-11-04T09:00:00Z,30.2513,-88.0778,7.11,26.06,1111122 
DISL,ioos:station:DISL:DISL:1,2012-11-04T09:30:00Z,30.2513,-88.0778,7.02,25.86,1111122 
DISL,ioos:station:DISL:DISL:1,2012-11-04T10:00:00Z,30.2513,-88.0778,6.968,25.97,1111122 
DISL,ioos:station:DISL:DISL:1,2012-11-04T10:30:00Z,30.2513,-88.0778,6.846,25.9,1111122 
DISL,ioos:station:DISL:DISL:1,2012-11-04T11:00:00Z,30.2513,-88.0778,6.767,25.69,1111122 
DISL,ioos:station:DISL:DISL:1,2012-11-04T11:30:00Z,30.2513,-88.0778,6.659,26.15,1111122 
DISL,ioos:station:DISL:DISL:1,2012-11-04T12:00:00Z,30.2513,-88.0778,6.575,26.33,1111122 
DISL,ioos:station:DISL:DISL:1,2012-11-04T12:30:00Z,30.2513,-88.0778,6.542,26.47,1111122 
DISL,ioos:station:DISL:DISL:1,2012-11-04T13:00:00Z,30.2513,-88.0778,6.475,26.62,1111122 
DISL,ioos:station:DISL:DISL:1,2012-11-04T13:30:00Z,30.2513,-88.0778,6.364,26.7,1111122 
DISL,ioos:station:DISL:DISL:1,2012-11-04T14:00:00Z,30.2513,-88.0778,6.28,26.81,1111122 
DISL,ioos:station:DISL:DISL:1,2012-11-04T14:30:00Z,30.2513,-88.0778,6.232,26.3,1111122 
DISL,ioos:station:DISL:DISL:1,2012-11-04T15:00:00Z,30.2513,-88.0778,6.238,23.85,1111122 
DISL,ioos:station:DISL:DISL:1,2012-11-04T15:30:00Z,30.2513,-88.0778,6.099,23.95,1111122 
DISL,ioos:station:DISL:DISL:1,2012-11-04T16:00:00Z,30.2513,-88.0778,6.023,23.31,1111122 
DISL,ioos:station:DISL:DISL:1,2012-11-04T16:30:00Z,30.2513,-88.0778,6.017,23.16,1111122 
DISL,ioos:station:DISL:DISL:1,2012-11-04T17:00:00Z,30.2513,-88.0778,5.945,23.09,1111122 
DISL,ioos:station:DISL:DISL:1,2012-11-04T17:30:00Z,30.2513,-88.0778,5.983,21.99,1111122 
DISL,ioos:station:DISL:DISL:1,2012-11-04T18:00:00Z,30.2513,-88.0778,5.949,22.22,1111122 
DISL,ioos:station:DISL:DISL:1,2012-11-04T18:30:00Z,30.2513,-88.0778,5.882,21.99,1111122 
DISL,ioos:station:DISL:DISL:1,2012-11-04T19:00:00Z,30.2513,-88.0778,5.945,21.78,1111122 
DISL,ioos:station:DISL:DISL:1,2012-11-04T19:30:00Z,30.2513,-88.0778,5.906,22.54,1111122 
DISL,ioos:station:DISL:DISL:1,2012-11-04T20:00:00Z,30.2513,-88.0778,6.04,23.29,1111122 
DISL,ioos:station:DISL:DISL:1,2012-11-04T20:30:00Z,30.2513,-88.0778,6.074,25.05,1111122 
DISL,ioos:station:DISL:DISL:1,2012-11-04T21:00:00Z,30.2513,-88.0778,6.182,23.94,1111122 
DISL,ioos:station:DISL:DISL:1,2012-11-04T21:30:00Z,30.2513,-88.0778,6.102,22.32,1111122 
DISL,ioos:station:DISL:DISL:1,2012-11-04T22:00:00Z,30.2513,-88.0778,6.227,23.53,1111122 
DISL,ioos:station:DISL:DISL:1,2012-11-04T22:30:00Z,30.2513,-88.0778,6.209,24.1,1111122 
DISL,ioos:station:DISL:DISL:1,2012-11-04T23:00:00Z,30.2513,-88.0778,6.265,24.58,1111122 
DISL,ioos:station:DISL:DISL:1,2012-11-04T23:30:00Z,30.2513,-88.0778,6.531,24.95,1111122 
DISL,ioos:station:DISL:DISL:1,2012-11-05T00:00:00Z,30.2513,-88.0778,6.612,24.72,1111122 
DISL,ioos:station:DISL:DISL:1,2012-11-05T00:30:00Z,30.2513,-88.0778,6.573,25.31,1111122 
DISL,ioos:station:DISL:DISL:1,2012-11-05T01:00:00Z,30.2513,-88.0778,6.739,25.47,1111122 
DISL,ioos:station:DISL:DISL:1,2012-11-05T01:30:00Z,30.2513,-88.0778,6.835,27.86,1111122 
DISL,ioos:station:DISL:DISL:1,2012-11-05T02:00:00Z,30.2513,-88.0778,6.852,28.22,1111122 
DISL,ioos:station:DISL:DISL:1,2012-11-05T02:30:00Z,30.2513,-88.0778,6.875,26.26,1111122 
DISL,ioos:station:DISL:DISL:1,2012-11-05T03:00:00Z,30.2513,-88.0778,6.921,25.89,1111122 
DISL,ioos:station:DISL:DISL:1,2012-11-05T03:30:00Z,30.2513,-88.0778,7.0,26.03,1111122 
DISL,ioos:station:DISL:DISL:1,2012-11-05T04:00:00Z,30.2513,-88.0778,7.04,25.91,1111122 
DISL,ioos:station:DISL:DISL:1,2012-11-05T04:30:00Z,30.2513,-88.0778,7.1,26.0,1111122 
DISL,ioos:station:DISL:DISL:1,2012-11-05T05:00:00Z,30.2513,-88.0778,7.09,25.87,1111122 
DISL,ioos:station:DISL:DISL:1,2012-11-05T05:30:00Z,30.2513,-88.0778,7.1,27.51,1111122 
DISL,ioos:station:DISL:DISL:1,2012-11-05T06:00:00Z,30.2513,-88.0778,7.26,29.58,1111122 
DISL,ioos:station:DISL:DISL:1,2012-11-05T06:30:00Z,30.2513,-88.0778,7.09,23.16,1111122 
DISL,ioos:station:DISL:DISL:1,2012-11-05T07:00:00Z,30.2513,-88.0778,7.24,22.16,1111122 
DISL,ioos:station:DISL:DISL:1,2012-11-05T07:30:00Z,30.2513,-88.0778,7.14,25.92,1111122 
DISL,ioos:station:DISL:DISL:1,2012-11-05T08:00:00Z,30.2513,-88.0778,7.32,24.13,1111122 
DISL,ioos:station:DISL:DISL:1,2012-11-05T08:30:00Z,30.2513,-88.0778,7.24,22.08,1111122 
DISL,ioos:station:DISL:DISL:1,2012-11-05T09:00:00Z,30.2513,-88.0778,6.931,21.88,1111122 
DISL,ioos:station:DISL:DISL:1,2012-11-05T09:30:00Z,30.2513,-88.0778,6.811,21.84,1111122 
DISL,ioos:station:DISL:DISL:1,2012-11-05T10:00:00Z,30.2513,-88.0778,6.971,21.8,1111122 
DISL,ioos:station:DISL:DISL:1,2012-11-05T10:30:00Z,30.2513,-88.0778,6.868,22.04,1111122 
DISL,ioos:station:DISL:DISL:1,2012-11-05T11:00:00Z,30.2513,-88.0778,6.851,21.96,1111122 
DISL,ioos:station:DISL:DISL:1,2012-11-05T11:30:00Z,30.2513,-88.0778,6.73,22.04,1111122 
DISL,ioos:station:DISL:DISL:1,2012-11-05T12:00:00Z,30.2513,-88.0778,6.653,22.09,1111122 
DISL,ioos:station:DISL:DISL:1,2012-11-05T12:30:00Z,30.2513,-88.0778,6.362,22.1,1111122 
DISL,ioos:station:DISL:DISL:1,2012-11-05T13:00:00Z,30.2513,-88.0778,6.412,22.21,1111122 
DISL,ioos:station:DISL:DISL:1,2012-11-05T13:30:00Z,30.2513,-88.0778,6.498,22.52,1111122 
DISL,ioos:station:DISL:DISL:1,2012-11-05T14:00:00Z,30.2513,-88.0778,6.353,22.91,1111122 
DISL,ioos:station:DISL:DISL:1,2012-11-05T14:30:00Z,30.2513,-88.0778,6.26,23.25,1111122 
DISL,ioos:station:DISL:DISL:1,2012-11-05T15:00:00Z,30.2513,-88.0778,6.31,23.27,1111122 
DISL,ioos:station:DISL:DISL:1,2012-11-05T15:30:00Z,30.2513,-88.0778,6.098,23.92,1111122 
DISL,ioos:station:DISL:DISL:1,2012-11-05T16:00:00Z,30.2513,-88.0778,6.085,23.99,1111122 
DISL,ioos:station:DISL:DISL:1,2012-11-05T16:30:00Z,30.2513,-88.0778,6.132,23.92,1111122 
DISL,ioos:station:DISL:DISL:1,2012-11-05T17:00:00Z,30.2513,-88.0778,6.068,23.72,1111122 
DISL,ioos:station:DISL:DISL:1,2012-11-05T17:30:00Z,30.2513,-88.0778,5.987,23.99,1111122 
DISL,ioos:station:DISL:DISL:1,2012-11-05T18:00:00Z,30.2513,-88.0778,6.032,24.02,1111122 
DISL,ioos:station:DISL:DISL:1,2012-11-05T18:30:00Z,30.2513,-88.0778,5.981,23.84,1111122 
DISL,ioos:station:DISL:DISL:1,2012-11-05T19:00:00Z,30.2513,-88.0778,6.133,23.68,1111122 
DISL,ioos:station:DISL:DISL:1,2012-11-05T19:30:00Z,30.2513,-88.0778,6.127,23.83,1111122 
DISL,ioos:station:DISL:DISL:1,2012-11-05T20:00:00Z,30.2513,-88.0778,6.201,24.11,1111122 
DISL,ioos:station:DISL:DISL:1,2012-11-05T20:30:00Z,30.2513,-88.0778,6.187,24.46,1111122 
DISL,ioos:station:DISL:DISL:1,2012-11-05T21:00:00Z,30.2513,-88.0778,6.307,24.7,1111122 
DISL,ioos:station:DISL:DISL:1,2012-11-05T21:30:00Z,30.2513,-88.0778,6.222,25.17,1111122 
DISL,ioos:station:DISL:DISL:1,2012-11-05T22:00:00Z,30.2513,-88.0778,6.356,24.77,1111122 
DISL,ioos:station:DISL:DISL:1,2012-11-05T22:30:00Z,30.2513,-88.0778,6.409,24.64,1111122 
DISL,ioos:station:DISL:DISL:1,2012-11-05T23:00:00Z,30.2513,-88.0778,6.441,24.45,1111122 
DISL,ioos:station:DISL:DISL:1,2012-11-05T23:30:00Z,30.2513,-88.0778,6.57,24.14,1111122 
DISL,ioos:station:DISL:DISL:1,2012-11-06T00:00:00Z,30.2513,-88.0778,6.568,24.12,1111122 
DISL,ioos:station:DISL:DISL:1,2012-11-06T00:30:00Z,30.2513,-88.0778,6.654,24.45,1111122 
DISL,ioos:station:DISL:DISL:1,2012-11-06T01:00:00Z,30.2513,-88.0778,6.667,24.67,1111122 
DISL,ioos:station:DISL:DISL:1,2012-11-06T01:30:00Z,30.2513,-88.0778,6.715,26.46,1111122 
DISL,ioos:station:DISL:DISL:1,2012-11-06T02:00:00Z,30.2513,-88.0778,6.866,29.22,1111122 
DISL,ioos:station:DISL:DISL:1,2012-11-06T02:30:00Z,30.2513,-88.0778,6.895,29.84,1111122 
DISL,ioos:station:DISL:DISL:1,2012-11-06T03:00:00Z,30.2513,-88.0778,6.958,30.08,1111122 
DISL,ioos:station:DISL:DISL:1,2012-11-06T03:30:00Z,30.2513,-88.0778,7.11,30.34,1111122 
DISL,ioos:station:DISL:DISL:1,2012-11-06T04:00:00Z,30.2513,-88.0778,7.14,29.96,1111122 
DISL,ioos:station:DISL:DISL:1,2012-11-06T04:30:00Z,30.2513,-88.0778,7.15,30.37,1111122 
DISL,ioos:station:DISL:DISL:1,2012-11-06T05:00:00Z,30.2513,-88.0778,7.22,28.92,1111122 
DISL,ioos:station:DISL:DISL:1,2012-11-06T05:30:00Z,30.2513,-88.0778,7.3,28.13,1111122 
DISL,ioos:station:DISL:DISL:1,2012-11-06T06:00:00Z,30.2513,-88.0778,7.37,27.27,1111122 
DISL,ioos:station:DISL:DISL:1,2012-11-06T06:30:00Z,30.2513,-88.0778,7.64,23.95,1111122 
DISL,ioos:station:DISL:DISL:1,2012-11-06T07:00:00Z,30.2513,-88.0778,7.61,23.99,1111122 
DISL,ioos:station:DISL:DISL:1,2012-11-06T07:30:00Z,30.2513,-88.0778,7.44,23.91,1111122 
DISL,ioos:station:DISL:DISL:1,2012-11-06T08:00:00Z,30.2513,-88.0778,7.44,23.83,1111122 
DISL,ioos:station:DISL:DISL:1,2012-11-06T08:30:00Z,30.2513,-88.0778,7.35,23.7,1111122 
DISL,ioos:station:DISL:DISL:1,2012-11-06T09:00:00Z,30.2513,-88.0778,7.22,23.47,1111122 
DISL,ioos:station:DISL:DISL:1,2012-11-06T09:30:00Z,30.2513,-88.0778,7.23,23.67,1111122 
DISL,ioos:station:DISL:DISL:1,2012-11-06T10:00:00Z,30.2513,-88.0778,6.992,23.41,1111122 
DISL,ioos:station:DISL:DISL:1,2012-11-06T10:30:00Z,30.2513,-88.0778,7.03,23.51,1111122 
DISL,ioos:station:DISL:DISL:1,2012-11-06T11:00:00Z,30.2513,-88.0778,6.739,23.63,1111122 
DISL,ioos:station:DISL:DISL:1,2012-11-06T11:30:00Z,30.2513,-88.0778,7.04,23.49,1111122 
DISL,ioos:station:DISL:DISL:1,2012-11-06T12:00:00Z,30.2513,-88.0778,6.986,23.39,1111122 
DISL,ioos:station:DISL:DISL:1,2012-11-06T12:30:00Z,30.2513,-88.0778,6.887,23.44,1111122 
DISL,ioos:station:DISL:DISL:1,2012-11-06T13:00:00Z,30.2513,-88.0778,6.784,23.61,1111122 
DISL,ioos:station:DISL:DISL:1,2012-11-06T13:30:00Z,30.2513,-88.0778,6.864,23.4,1111122 
DISL,ioos:station:DISL:DISL:1,2012-11-06T14:00:00Z,30.2513,-88.0778,6.675,23.32,1111122 
DISL,ioos:station:DISL:DISL:1,2012-11-06T14:30:00Z,30.2513,-88.0778,6.452,23.51,1111122 